Torna al catalogo

GLOBAL-18

AttivoComunicazioniVLEO
NORAD 52196·PAYLOAD·🇺🇸 United States

Lanciato Apr 2, 2022 da Rocket Lab Launch Complex 1

Loading…

Prossimi Passaggi (prossime 24 ore)

TLE

AggiornatoSource: Space-Track

Epoca: Sep 14, 2026, 05:29 UTC

1 52196U 22034B   26257.22851181  .00019869  00000-0  36171-3 0  9998
2 52196  52.9812 190.0518 0004064 155.5212 204.5988 15.49511620250750

Traccia GLOBAL-18 in tempo reale con AllMySat

Download on the App Store